STARLINK-34670

Last updated on Tue Sep 16 2025 00:02:07 GMT+0000 (Coordinated Universal Time)

1 65424U 25192W 25258.58341435 -.01479562 00000+0 -15596-1 0 9997 2 65424 53.1593 338.0659 0001222 70.8270 183.7905 15.66412537 3628
UTC large
Height (km)
Speed (km/s)
/
Latitude / Longitude
Inclination (degrees)
Orbital Period (minutes)
Azimuth
Elevation
Range (km)
Doppler Factor

Next 0 passes for location: London (51.5072 / 0.1276)

Sorry there are no passes over London.